Location: Central Springs High School
(43.2862°N, 93.1962°W)
Time: 07:55:53
(UTC+00:00)

BlueWalker 3 - Visible Passes

Search period start: 11 October 2024 00:00
Search period end: 21 October 2024 00:00
Orbit: 472 x 485 km, 53.2° (Epoch: 10 October)

Date Brightness Start Highest point End Pass type
(mag) Time Alt. Az. Time Alt. Az. Time Alt. Az.
11 Oct 3.6 10:10:17 25° NNE 10:10:17 25° NNE 10:12:26 10° NE visible
11 Oct 3.9 11:45:25 10° NW 11:47:58 17° N 11:50:31 10° NE visible
12 Oct 4.5 09:43:04 16° NNE 09:43:04 16° NNE 09:44:03 10° NE visible
12 Oct 3.9 11:17:15 11° NW 11:19:30 17° N 11:22:03 10° NE visible
13 Oct 3.8 10:50:00 16° NNW 10:51:00 18° N 10:53:35 10° NE visible
14 Oct 4.0 10:22:41 18° N 10:22:41 18° N 10:25:04 10° NE visible
15 Oct 4.5 09:55:21 15° NNE 09:55:21 15° NNE 09:56:33 10° NE visible
15 Oct 3.8 11:29:58 10° NW 11:32:52 21° NNE 11:35:44 10° ENE visible
16 Oct 3.9 11:02:10 13° NNW 11:04:16 20° NNE 11:07:05 10° ENE visible
17 Oct 3.8 10:34:48 18° N 10:35:37 20° N 10:38:23 10° ENE visible
18 Oct 4.2 10:07:27 18° NNE 10:07:27 18° NNE 10:09:39 10° ENE visible
18 Oct 2.6 11:41:59 10° NW 11:45:34 48° NNE 11:49:10 10° ESE visible
19 Oct 4.9 09:40:07 13° NE 09:40:07 13° NE 09:40:54 10° NE visible
19 Oct 2.8 11:14:18 17° NW 11:16:54 43° NNE 11:20:26 10° ESE visible
20 Oct 2.9 10:46:59 30° NNW 10:48:11 39° NNE 10:51:40 10° E visible
